Middletown, OH

2:58 AM EDT on March 26, 2017 (GMT -0400)
Hook Field Municipal

Weather History for KMWO - February, 2013

Change the Weather History Date:

Thursday, February 21, 2013

  Actual Average (KFFO) Record (KFFO)
Temperature  
Mean Temperature 26 °F -  
Max Temperature 32 °F 41 °F 68 °F (1997)
Min Temperature 21 °F 23 °F -2 °F (2008)
Degree Days  
Heating Degree Days 38    
Moisture  
Dew Point 21 °F    
Average Humidity 79    
Maximum Humidity 91    
Minimum Humidity 68    
Precipitation  
Precipitation 0.00 in - - ()
Sea Level Pressure  
Sea Level Pressure 30.28 in    
Wind  
Wind Speed 6 mph (NE)    
Max Wind Speed 16 mph    
Max Gust Speed 22 mph    
Visibility 10 miles    
Events Snow    
Averages and records for this station are not official NWS values.
T = Trace of Precipitation, MM = Missing Value Source: NWS Daily Summary

Daily Weather History Graph

Daily Weather History Graph

Search for Another Location

Airport or City:

Trip Planner

Search our weather history database for the weather conditions in past years. The results will help you decide how hot, cold, wet, or windy it might be!

Date:

Astronomy

Feb. 21, 2013 Rise Set
Actual Time 7:21 AM EST 6:21 PM EST
Civil Twilight 6:54 AM EST 6:48 PM EST
Nautical Twilight 6:23 AM EST 7:19 PM EST
Astronomical Twilight 5:51 AM EST 7:51 PM EST
Moon 2:36 PM EST (2/21) 4:24 AM EST (2/21)
Length of Visible Light 11h 54m
Length of Day
10h 59m
Waxing Gibbous, 83% of the Moon is Illuminated
Feb 21
Waxing Gibbous
Feb 25
Full
Mar 4
Last Quarter
Mar 11
New
Mar 19
First Quarter

Hourly Weather History & Observations

Time (EST) Temp. Windchill Dew Point Humidity Pressure Visibility Wind Dir Wind Speed Gust Speed Precip Events Conditions
12:15 AM 21.7 °F 15.5 °F 15.3 °F 76% 30.31 in 10.0 mi NNW 4.6 mph - N/A   Overcast
12:35 AM 22.5 °F 15.1 °F 16.2 °F 77% 30.31 in 10.0 mi NW 5.8 mph - N/A   Overcast
12:55 AM 22.3 °F 17.6 °F 16.0 °F 77% 30.31 in 10.0 mi NNW 3.5 mph - N/A   Overcast
1:15 AM 22.8 °F - 16.5 °F 77% 30.32 in 10.0 mi Calm Calm - N/A   Overcast
1:35 AM 22.8 °F 16.7 °F 16.5 °F 77% 30.31 in 10.0 mi North 4.6 mph - N/A   Overcast
1:55 AM 22.8 °F 18.2 °F 16.7 °F 77% 30.32 in 10.0 mi NW 3.5 mph - N/A   Overcast
2:15 AM 22.8 °F 18.2 °F 17.2 °F 79% 30.32 in 10.0 mi NNW 3.5 mph - N/A   Overcast
2:35 AM 22.8 °F 15.5 °F 17.2 °F 79% 30.33 in 10.0 mi NNW 5.8 mph - N/A   Overcast
2:55 AM 22.8 °F 16.7 °F 17.6 °F 80% 30.32 in 10.0 mi North 4.6 mph - N/A   Overcast
3:15 AM 22.8 °F 16.7 °F 17.6 °F 80% 30.32 in 10.0 mi NNW 4.6 mph - N/A   Overcast
3:35 AM 22.8 °F 15.5 °F 17.6 °F 80% 30.31 in 10.0 mi North 5.8 mph - N/A   Overcast
3:55 AM 22.8 °F 18.2 °F 17.6 °F 80% 30.30 in 10.0 mi NNE 3.5 mph - N/A   Overcast
4:15 AM 22.8 °F 18.2 °F 18.0 °F 82% 30.30 in 10.0 mi North 3.5 mph - N/A   Overcast
4:35 AM 22.8 °F 14.5 °F 18.1 °F 82% 30.31 in 10.0 mi NNE 6.9 mph - N/A   Overcast
4:55 AM 22.8 °F 15.5 °F 18.3 °F 83% 30.32 in 10.0 mi North 5.8 mph - N/A   Overcast
5:15 AM 22.8 °F 16.7 °F 18.3 °F 83% 30.31 in 10.0 mi NNE 4.6 mph - N/A   Overcast
5:35 AM 22.8 °F 14.5 °F 18.0 °F 82% 30.32 in 10.0 mi NNE 6.9 mph - N/A   Overcast
5:55 AM 22.8 °F 16.7 °F 18.1 °F 82% 30.33 in 10.0 mi North 4.6 mph - N/A   Overcast
6:15 AM 22.8 °F 15.5 °F 18.3 °F 83% 30.33 in 10.0 mi North 5.8 mph - N/A   Overcast
6:55 AM 22.8 °F 14.5 °F 18.3 °F 83% 30.35 in 10.0 mi NNE 6.9 mph - N/A   Overcast
7:15 AM 22.8 °F 15.5 °F 18.3 °F 83% 30.35 in 10.0 mi North 5.8 mph - N/A   Overcast
7:35 AM 22.8 °F 15.5 °F 18.3 °F 83% 30.37 in 10.0 mi NNE 5.8 mph - N/A   Overcast
7:55 AM 22.8 °F 18.2 °F 18.1 °F 82% 30.36 in 10.0 mi NNE 3.5 mph - N/A   Overcast
8:15 AM 23.0 °F 17.0 °F 18.5 °F 83% 30.35 in 10.0 mi North 4.6 mph - N/A   Overcast
8:35 AM 23.9 °F - 19.4 °F 83% 30.37 in 10.0 mi Calm Calm - N/A   Overcast
8:55 AM 25.3 °F - 20.7 °F 82% 30.37 in 10.0 mi Calm Calm - N/A   Overcast
9:15 AM 25.3 °F - 20.3 °F 81% 30.37 in 10.0 mi Calm Calm - N/A   Overcast
9:35 AM 25.3 °F 19.7 °F 20.3 °F 81% 30.37 in 10.0 mi North 4.6 mph - N/A   Overcast
9:55 AM 25.3 °F 17.6 °F 20.1 °F 81% 30.37 in 10.0 mi NE 6.9 mph - N/A   Overcast
10:15 AM 25.3 °F 17.6 °F 20.1 °F 81% 30.36 in 10.0 mi NE 6.9 mph - N/A   Overcast
10:35 AM 25.3 °F 21.1 °F 19.6 °F 79% - 10.0 mi East 3.5 mph - N/A   Overcast
10:55 AM 27.1 °F 19.7 °F 21.0 °F 78% 30.36 in 10.0 mi NNE 6.9 mph - N/A   Overcast
11:15 AM 27.9 °F 19.1 °F 20.8 °F 75% 30.35 in 10.0 mi ENE 9.2 mph - N/A   Overcast
11:35 AM 27.9 °F 21.5 °F 20.3 °F 73% 30.34 in 10.0 mi NE 5.8 mph - N/A   Mostly Cloudy
11:55 AM 27.9 °F 18.4 °F 20.3 °F 73% 30.33 in 10.0 mi ENE 10.4 mph - N/A   Mostly Cloudy
12:15 PM 28.9 °F 21.1 °F 19.9 °F 69% 30.32 in 10.0 mi NNE 8.1 mph - N/A   Mostly Cloudy
12:35 PM 29.7 °F 22.8 °F 20.5 °F 69% 30.33 in 10.0 mi ENE 6.9 mph - N/A   Scattered Clouds
12:55 PM 29.1 °F 21.3 °F 19.9 °F 69% 30.32 in 10.0 mi ENE 8.1 mph - N/A   Clear
1:15 PM 29.3 °F 20.8 °F 20.3 °F 69% 30.30 in 10.0 mi East 9.2 mph - N/A   Scattered Clouds
1:35 PM 28.8 °F 20.2 °F 20.1 °F 70% 30.29 in 10.0 mi ENE 9.2 mph - N/A   Scattered Clouds
1:55 PM 32.5 °F 24.8 °F 23.0 °F 68% 30.26 in 10.0 mi East 9.2 mph - N/A   Scattered Clouds
2:15 PM 32.5 °F 26.2 °F 23.2 °F 68% 30.25 in 10.0 mi East 6.9 mph - N/A   Scattered Clouds
2:35 PM 31.8 °F 24.6 °F 22.3 °F 68% 30.26 in 10.0 mi ESE 8.1 mph - N/A   Scattered Clouds
2:55 PM 32.5 °F 24.8 °F 23.2 °F 68% 30.25 in 10.0 mi ESE 9.2 mph - N/A   Scattered Clouds
3:15 PM 32.5 °F 22.7 °F 23.9 °F 70% 30.23 in 10.0 mi ENE 13.8 mph 18.4 mph N/A   Scattered Clouds
3:35 PM 30.2 °F 19.8 °F 22.3 °F 72% 30.23 in 10.0 mi East 13.8 mph 17.3 mph N/A   Scattered Clouds
3:55 PM 30.2 °F 18.9 °F 22.6 °F 73% 30.23 in 10.0 mi East 16.1 mph - N/A   Scattered Clouds
4:15 PM 28.8 °F 17.9 °F 21.7 °F 75% 30.24 in 10.0 mi East 13.8 mph - N/A   Scattered Clouds
4:35 PM 28.0 °F 17.5 °F 21.6 °F 77% 30.25 in 10.0 mi East 12.7 mph - N/A   Scattered Clouds
4:55 PM 27.9 °F 17.8 °F 21.6 °F 77% 30.27 in 10.0 mi East 11.5 mph 17.3 mph N/A   Mostly Cloudy
5:15 PM 27.9 °F 19.8 °F 21.7 °F 78% 30.27 in 10.0 mi East 8.1 mph - N/A   Mostly Cloudy
5:35 PM 27.9 °F 16.3 °F 22.1 °F 79% 30.24 in 10.0 mi ENE 15.0 mph - N/A   Scattered Clouds
5:55 PM 27.9 °F 18.4 °F 22.3 °F 80% 30.23 in 10.0 mi ENE 10.4 mph - N/A   Clear
6:15 PM 27.9 °F 16.3 °F 22.3 °F 80% 30.22 in 10.0 mi ENE 15.0 mph 19.6 mph N/A   Clear
6:35 PM 27.9 °F 16.8 °F 22.5 °F 80% 30.23 in 10.0 mi ENE 13.8 mph - N/A   Clear
6:55 PM 27.9 °F 17.3 °F 22.5 °F 80% 30.22 in 10.0 mi ENE 12.7 mph 19.6 mph N/A   Clear
7:15 PM 28.0 °F 18.1 °F 22.3 °F 79% 30.22 in 10.0 mi East 11.5 mph - N/A   Clear
7:35 PM 28.6 °F 21.5 °F 22.6 °F 78% 30.24 in 10.0 mi East 6.9 mph - N/A   Clear
7:55 PM 28.9 °F 21.1 °F 23.0 °F 78% 30.23 in 10.0 mi East 8.1 mph - N/A   Mostly Cloudy
8:15 PM 29.1 °F 20.0 °F 23.0 °F 78% 30.22 in 10.0 mi East 10.4 mph - N/A   Overcast
8:35 PM 29.1 °F 23.0 °F 23.0 °F 78% 30.22 in 10.0 mi East 5.8 mph - N/A   Overcast
8:55 PM 29.1 °F 22.1 °F 23.0 °F 78% 30.23 in 10.0 mi East 6.9 mph - N/A   Overcast
9:15 PM 29.1 °F 22.1 °F 23.0 °F 78% 30.23 in 10.0 mi East 6.9 mph - N/A   Overcast
9:35 PM 29.1 °F 22.1 °F 23.2 °F 78% 30.22 in 10.0 mi East 6.9 mph - N/A   Overcast
9:55 PM 28.2 °F 20.2 °F 24.1 °F 84% 30.21 in 4.0 mi East 8.1 mph - N/A Snow Light Snow
10:15 PM 27.9 °F 19.1 °F 24.8 °F 88% 30.19 in 5.0 mi East 9.2 mph - N/A Snow Light Snow
10:35 PM 27.9 °F 18.4 °F 25.3 °F 90% 30.15 in 7.0 mi East 10.4 mph - N/A Snow Light Snow
10:55 PM 27.9 °F 16.8 °F 25.5 °F 91% 30.12 in 10.0 mi East 13.8 mph 21.9 mph N/A   Overcast
11:15 PM 28.0 °F 16.1 °F 25.5 °F 90% 30.10 in 10.0 mi East 16.1 mph - N/A   Overcast
11:35 PM 28.6 °F 23.5 °F 25.9 °F 90% 30.11 in 10.0 mi East 4.6 mph 21.9 mph N/A   Overcast
11:55 PM 29.3 °F 20.2 °F 25.9 °F 87% 30.09 in 10.0 mi East 10.4 mph - N/A Snow Light Snow